Location: Unspecified
(54.1780°N, 0.0000°E)
Time: 04:19:30
(UTC+00:00)

Vanguard 2 - Pass Details

Date: 19 June 2019
Orbit: 553 x 2938 km, 32.9° (Epoch: 23 July)

Event Time Altitude Azimuth Distance (km) Brightness Sun altitude
Rises 11:13:19 0° 235° (SW) 4,083 11.3 58.0°
Reaches altitude 10° 11:16:31 10° 220° (SW) 3,456 11.2 58.1°
Maximum altitude 11:23:05 22° 174° (S) 3,244 11.7 58.4°
Drops below altitude 10° 11:32:02 10° 131° (SE) 4,883 12.2 58.8°
Sets 11:37:48 0° 119° (ESE) 6,274 12.5 58.9°
